Flag for Argentina Weather past 2 weeks in Corrientes, Corrientes, Argentina

Now
55 °F

Sunny.


Feels Like: 54 °F
Forecast: 35 / 59 °F
Wind: 6 mph from Northeast

Location: Resistencia Aero.

Current Time: Jul 25, 2014 at 1:06:32 PM

Latest Report: Jul 25, 2014 at 12:00 PM


Visibility: 10 mi

Pressure: 30.21 "Hg

Humidity: 63%

Dew point: 43 °F

Location of CorrientesLocation

Historic Weather in Corrientes — Graph

°F

Corrientes temperature yesterday

Maximum temperature yesterday: 57 °F (at 4:00 PM)
Minimum temperature yesterday: 39 °F (at 11:00 PM)
Average temperature yesterday: 50 °F

Past Weeks' High & Low Weather Summary

 TemperatureHumidityPressure
High84 °F (Jul 14, 2:00 PM)100% (Jul 10, 12:00 PM)30.39 "Hg (Jul 10, 12:00 PM)
Low34 °F (Jul 25, 6:00 AM)40% (Jul 19, 2:00 PM)29.71 "Hg (Jul 22, 1:00 PM)
Average63 °F82%30.03 "Hg
* Reported Jul 10 12:00 Noon — Jul 25 12:00 Noon, Corrientes, Weather by CustomWeather, © 2014

Note: Actual official high and low records may vary slightly from our data, if they occured in-between our weather recording intervals... More about our weather records

Advertising

Corrientes weather history for previous 24 hours

 ConditionsComfort  
Time TempWeatherWind HumidityBarometerVisibility
12:00 PM
Jul 25
55 °FSunny.6 mph63%30.21 "Hg10 mi
11:00 AM55 °FPassing clouds.3 mph63%30.21 "HgN/A
10:00 AM50 °FClear.2 mph76%30.21 "Hg4 mi
9:00 AM43 °FFog.No wind87%30.21 "Hg2 mi
8:00 AM46 °FFog.No wind100%30.18 "Hg2 mi
7:00 AM34 °FFog.3 mph100%30.21 "Hg1 mi
6:00 AM34 °FClear.No wind100%30.18 "Hg4 mi
5:00 AM36 °FClear.No wind93%30.18 "Hg10 mi
4:00 AM36 °FClear.2 mph100%30.21 "Hg4 mi
3:00 AM36 °FClear.No wind100%30.21 "Hg5 mi
2:00 AM36 °FClear.No wind100%30.24 "Hg10 mi
1:00 AM36 °FClear.2 mph100%30.24 "Hg5 mi
12:00 AM37 °FClear.No wind100%30.24 "Hg10 mi
11:00 PM
Jul 24
39 °FClear.No wind93%30.24 "Hg10 mi
10:00 PM41 °FClear.No wind93%30.24 "Hg10 mi
9:00 PM43 °FClear.5 mph87%30.24 "Hg10 mi
8:00 PM45 °FClear.3 mph87%30.24 "Hg10 mi
7:00 PM50 °FPassing clouds.3 mph76%30.24 "HgN/A
6:00 PM55 °FPassing clouds.3 mph55%30.24 "HgN/A
5:00 PM57 °FPassing clouds.6 mph55%30.24 "HgN/A
4:00 PM57 °FScattered clouds.8 mph59%30.21 "HgN/A
3:00 PM55 °FBroken clouds.10 mph59%30.24 "HgN/A
2:00 PM55 °FScattered clouds.10 mph63%30.24 "HgN/A
1:00 PM55 °FScattered clouds.10 mph63%30.24 "HgN/A
Weather by CustomWeather, © 2014

See weather overviewHow to use our weather pages